Voltar ao catálogo

OPS 4682 DEB

AtivoPO
NORAD 29059·DEBRIS·🇺🇸 United States

Lançado Apr 3, 1965 de Vandenberg Space Force Base

Loading…

Próximas Passagens (próximas 24 horas)

TLE

AtualizadoSource: Space-Track

Época: Sep 14, 2026, 07:11 UTC

1 29059U 65027BJ  26257.29970209  .00000300  00000-0  10513-2 0  9990
2 29059  90.2462   8.2461 0028850 357.6321  30.2138 12.94363531167144

Acompanhe OPS 4682 DEB em tempo real com AllMySat

Download on the App Store